GW2918 Weather Reports


time (UTC)temp
C
wind
direction
speed
KPH
gust
KPH
rain 1hr
cm
rain 24hr
cm
rain mn
cm
humidity
%
barometer
mb
20240614122135 18 153 1.6 3.2 0.00 0.00 0.00 88 1013.9
20240614121133 18 156 3.2 3.2 0.00 0.00 0.00 89 1013.7
20240614120131 17 130 1.6 3.2 0.00 0.00 0.00 91 1013.8
20240614115131 17 133 1.6 4.8 0.00 0.00 0.00 91 1014.1
20240614114130 17 132 3.2 4.8 0.00 0.00 0.00 90 1013.6
20240614113130 18 150 4.8 6.4 0.00 0.00 0.00 88 1014.0
20240614112130 18 143 3.2 8.0 0.00 0.00 0.00 84 1013.8
20240614111130 19 144 6.4 6.4 0.00 0.00 0.00 81 1013.5
20240614110128 19 172 6.4 8.0 0.00 0.00 0.00 82 1013.3
20240614105128 19 160 3.2 8.0 0.00 0.00 0.00 85 1013.3
20240614104126 19 139 1.6 6.4 0.00 0.00 0.00 85 1013.1
20240614103125 19 134 1.6 6.4 0.00 0.00 0.00 85 1013.0
20240614102125 19 158 0.0 4.8 0.00 0.00 0.00 85 1013.1
20240614101124 18 138 4.8 6.4 0.00 0.00 0.00 88 1013.2
20240614100124 18 170 4.8 6.4 0.00 0.00 0.00 91 1013.2
20240614095123 18 125 1.6 4.8 0.00 0.00 0.00 93 1013.1
20240614094121 18 174 3.2 4.8 0.00 0.00 0.00 93 1012.7
20240614093120 18 171 4.8 8.0 0.00 0.00 0.00 93 1012.9
20240614092119 18 165 3.2 6.4 0.00 0.00 0.00 93 1012.8
20240614091118 18 142 3.2 4.8 0.00 0.00 0.00 95 1012.6
20240614090116 18 130 6.4 6.4 0.00 0.00 0.00 95 1012.8
20240614085116 18 135 3.2 8.0 0.00 0.00 0.00 95 1012.9
20240614084116 18 170 3.2 9.7 0.00 0.00 0.00 95 1013.0
20240614083116 18 156 0.0 4.8 0.00 0.00 0.00 96 1012.8
20240614082114 19 172 6.4 9.7 0.00 0.00 0.00 95 1012.8
20240614081113 19 168 8.0 11.3 0.00 0.00 0.00 95 1012.7
20240614080113 19 154 1.6 6.4 0.00 0.00 0.00 95 1012.9
20240614075113 19 138 3.2 11.3 0.00 0.00 0.00 96 1012.9
20240614074111 19 181 6.4 11.3 0.00 0.00 0.00 95 1013.1
20240614073111 19 157 3.2 11.3 0.00 0.00 0.00 95 1013.2
20240614072111 20 144 6.4 9.7 0.00 0.00 0.00 94 1013.0
20240614071110 20 190 8.0 9.7 0.00 0.00 0.00 94 1013.2
20240614070110 20 151 8.0 8.0 0.00 0.00 0.00 94 1013.1
20240614065108 20 162 6.4 9.7 0.00 0.00 0.00 93 1013.2
20240614064107 20 175 4.8 6.4 0.00 0.00 0.00 93 1013.2
20240614063107 20 180 8.0 14.5 0.00 0.00 0.00 93 1013.4
20240614062108 20 141 4.8 9.7 0.00 0.00 0.00 92 1013.4
20240614061108 20 140 6.4 11.3 0.00 0.00 0.00 92 1013.5
20240614060108 20 153 6.4 11.3 0.00 0.00 0.00 91 1013.4
20240614055108 20 147 8.0 14.5 0.00 0.00 0.00 91 1013.5
20240614054106 20 142 4.8 11.3 0.00 0.00 0.00 91 1013.6
20240614053106 20 193 3.2 9.7 0.00 0.00 0.00 90 1013.8
20240614052106 20 148 1.6 8.0 0.00 0.00 0.00 89 1013.8
20240614051106 20 153 3.2 8.0 0.00 0.00 0.00 88 1013.8
20240614050105 20 156 3.2 9.7 0.00 0.00 0.00 87 1014.0
20240614045104 20 130 4.8 9.7 0.00 0.00 0.00 85 1013.9
20240614044103 21 171 4.8 14.5 0.00 0.00 0.00 84 1013.8
20240614043101 20 142 6.4 9.7 0.00 0.00 0.00 83 1013.9
20240614042100 20 129 4.8 6.4 0.00 0.00 0.00 80 1014.0
20240614041101 20 159 6.4 14.5 0.00 0.00 0.00 77 1014.1
20240614040100 20 150 3.2 9.7 0.00 0.00 0.00 76 1014.1
20240614035059 20 154 4.8 8.0 0.00 0.00 0.00 77 1014.6
20240614034058 20 148 3.2 6.4 0.00 0.00 0.00 77 1014.5
20240614033059 20 148 4.8 4.8 0.00 0.00 0.00 76 1014.7
20240614032058 20 141 0.0 3.2 0.00 0.00 0.00 76 1014.8
20240614031057 20 167 4.8 6.4 0.00 0.00 0.00 76 1014.8
20240614030055 21 151 1.6 3.2 0.00 0.00 0.00 76 1014.8
20240614025055 21 127 1.6 3.2 0.00 0.00 0.00 74 1014.8
20240614024055 21 144 3.2 6.4 0.00 0.00 0.00 73 1014.9
20240614023053 21 158 3.2 4.8 0.00 0.00 0.00 73 1015.1
20240614022052 21 154 8.0 8.0 0.00 0.00 0.00 73 1015.1
20240614021052 21 149 3.2 9.7 0.00 0.00 0.00 72 1014.8
20240614020051 21 138 4.8 8.0 0.00 0.00 0.00 73 1014.7
20240614015051 21 161 6.4 8.0 0.00 0.00 0.00 72 1014.7
20240614014049 21 154 6.4 8.0 0.00 0.00 0.00 72 1014.5
20240614013048 21 147 6.4 6.4 0.00 0.00 0.00 72 1014.5
20240614012046 21 172 6.4 9.7 0.00 0.00 0.00 70 1014.5
20240614011046 22 177 4.8 8.0 0.00 0.00 0.00 70 1014.5
20240614010044 22 153 6.4 6.4 0.00 0.00 0.00 68 1014.5
20240614005043 22 182 6.4 6.4 0.00 0.00 0.00 66 1014.4
20240614004041 22 151 1.6 4.8 0.00 0.00 0.00 67 1014.3
20240614003041 22 157 3.2 4.8 0.00 0.00 0.00 65 1014.4
20240614002039 22 164 3.2 4.8 0.00 0.00 0.00 64 1014.5
20240614001038 23 167 3.2 3.2 0.00 0.00 0.00 63 1014.5
20240614000036 23 158 3.2 4.8 0.00 0.00 0.00 60 1014.3
20240613235035 23 157 6.4 8.0 0.00 0.00 0.00 58 1014.6
20240613234034 24 148 3.2 11.3 0.00 0.00 0.00 58 1014.6
20240613233034 25 191 4.8 12.9 0.00 0.00 0.00 56 1014.7
20240613232033 25 177 8.0 8.0 0.00 0.00 0.00 54 1015.0
20240613231031 25 168 1.6 6.4 0.00 0.00 0.00 52 1015.2
20240613230030 25 126 4.8 8.0 0.00 0.00 0.00 52 1015.1
20240613225028 25 184 4.8 8.0 0.00 0.00 0.00 49 1015.2
20240613224028 25 151 3.2 3.2 0.00 0.00 0.00 49 1015.1
20240613223027 25 201 6.4 11.3 0.00 0.00 0.00 47 1015.2
20240613222026 26 158 3.2 6.4 0.00 0.00 0.00 46 1015.4
20240613221026 26 199 6.4 9.7 0.00 0.00 0.00 46 1015.5
20240613220025 26 177 8.0 11.3 0.00 0.00 0.00 46 1015.4
20240613215023 26 157 1.6 8.0 0.00 0.00 0.00 46 1015.5
20240613214023 26 147 3.2 9.7 0.00 0.00 0.00 47 1015.2
20240613213023 26 144 6.4 6.4 0.00 0.00 0.00 46 1015.2
20240613212022 26 148 3.2 9.7 0.00 0.00 0.00 49 1015.4
20240613211022 26 159 6.4 6.4 0.00 0.00 0.00 46 1015.2
20240613210022 26 170 6.4 11.3 0.00 0.00 0.00 49 1015.1
20240613205021 26 186 9.7 9.7 0.00 0.00 0.00 46 1015.1
20240613204020 26 175 9.7 14.5 0.00 0.00 0.00 49 1015.0
20240613203020 26 172 6.4 19.3 0.00 0.00 0.00 45 1015.0
20240613202020 26 194 8.0 8.0 0.00 0.00 0.00 49 1015.3
20240613201018 26 150 6.4 14.5 0.00 0.00 0.00 46 1015.2
20240613200018 26 174 3.2 8.0 0.00 0.00 0.00 46 1015.4
20240613195016 26 149 8.0 17.7 0.00 0.00 0.00 46 1015.4
20240613194016 26 207 8.0 17.7 0.00 0.00 0.00 46 1015.5
20240613193015 26 184 9.7 9.7 0.00 0.00 0.00 45 1015.7
20240613192014 26 155 3.2 9.7 0.00 0.00 0.00 49 1015.8
20240613191012 25 179 3.2 12.9 0.00 0.00 0.00 46 1016.0
20240613190012 25 172 6.4 12.9 0.00 0.00 0.00 51 1015.7
20240613185011 26 160 3.2 6.4 0.00 0.00 0.00 46 1015.8
20240613184009 26 144 3.2 9.7 0.00 0.00 0.00 47 1016.0
20240613183009 25 175 8.0 14.5 0.00 0.00 0.00 46 1016.1
20240613182008 25 158 4.8 14.5 0.00 0.00 0.00 48 1016.5
20240613181008 25 147 6.4 9.7 0.00 0.00 0.00 47 1016.5
20240613180009 25 356 0.0 11.3 0.00 0.00 0.00 52 1016.7
20240613175007 25 182 9.7 16.1 0.00 0.00 0.00 47 1016.7
20240613174007 26 185 6.4 6.4 0.00 0.00 0.00 49 1016.9
20240613173008 25 189 3.2 11.3 0.00 0.00 0.00 53 1016.8
20240613172006 25 191 8.0 19.3 0.00 0.00 0.00 48 1016.8
20240613171005 25 181 4.8 11.3 0.00 0.00 0.00 49 1016.9
20240613170005 25 214 12.9 14.5 0.00 0.00 0.00 48 1016.9
20240613165002 23 141 3.2 20.9 0.00 0.00 0.00 50 1017.1
20240613164000 24 142 3.2 4.8 0.00 0.00 0.00 53 1016.9
20240613163000 24 191 8.0 20.9 0.00 0.00 0.00 50 1017.1
20240613161959 24 154 3.2 11.3 0.00 0.00 0.00 55 1017.2
20240613160958 23 146 8.0 17.7 0.00 0.00 0.00 51 1017.1
20240613155959 24 184 3.2 8.0 0.00 0.00 0.00 51 1017.2
20240613154958 23 159 6.4 12.9 0.00 0.00 0.00 54 1017.1
20240613153956 23 148 4.8 11.3 0.00 0.00 0.00 56 1017.1
20240613152956 23 168 9.7 19.3 0.00 0.00 0.00 55 1017.2
20240613151955 25 179 3.2 9.7 0.00 0.00 0.00 53 1017.2
20240613150953 24 189 3.2 11.3 0.00 0.00 0.00 55 1017.1
20240613145953 24 153 4.8 6.4 0.00 0.00 0.00 56 1017.1
20240613144952 24 229 6.4 8.0 0.00 0.00 0.00 56 1017.2
20240613143952 23 168 3.2 9.7 0.00 0.00 0.00 58 1017.1
20240613142950 23 208 1.6 6.4 0.00 0.00 0.00 62 1017.3
20240613141950 23 222 6.4 9.7 0.00 0.00 0.00 57 1017.5
20240613140949 23 147 4.8 9.7 0.00 0.00 0.00 58 1017.1
20240613135947 22 188 4.8 9.7 0.00 0.00 0.00 60 1017.5
20240613134947 21 209 4.8 11.3 0.00 0.00 0.00 63 1017.4
20240613133945 21 272 1.6 8.0 0.00 0.00 0.00 65 1017.6
20240613132944 21 193 6.4 8.0 0.00 0.00 0.00 64 1017.8
20240613131944 21 187 4.8 8.0 0.00 0.00 0.00 64 1017.5
20240613130944 20 175 4.8 8.0 0.00 0.00 0.00 67 1017.8
20240613125942 20 202 6.4 8.0 0.00 0.00 0.00 67 1017.6
20240613124942 20 147 1.6 6.4 0.00 0.00 0.00 67 1017.7
20240613123941 20 191 6.4 6.4 0.00 0.00 0.00 66 1017.6
20240613122939 19 152 0.0 6.4 0.00 0.00 0.00 70 1017.6